Terug naar catalogus

FENGYUN 1C DEB

ActiefPO
NORAD 31345·DEBRIS·🇨🇳 China

Gelanceerd May 10, 1999 vanaf Taiyuan Satellite Launch Center

Loading…

Volgende Passages (komende 24 uur)

TLE

VerouderdSource: Space-Track

Epoch: Sep 2, 2026, 19:31 UTC

1 31345U 99025BQZ 26245.81348198  .00001813  00000-0  96124-3 0  9990
2 31345  98.0913 239.3477 0069720  37.7890 322.8151 14.13462792992316

Volg FENGYUN 1C DEB in realtime met AllMySat

Download on the App Store